Location: الشقيري
(17.1356°N, 42.8272°E)
Time: 17:00:21
(UTC+00:00)

N. Korean satellite - Pass Details

Date: 21 November 2019
Orbit: 456 x 506 km, 97.2° (Epoch: 05 December)

Event Time Altitude Azimuth Distance (km) Brightness Sun altitude
Rises 02:15:35 0° 27° (NNE) 2,570 10.4 -14.6°
Reaches altitude 10° 02:17:54 10° 40° (NE) 1,678 9.6 -14.0°
Maximum altitude 02:21:00 27° 99° (E) 969 9.0 -13.3°
Drops below altitude 10° 02:24:02 10° 158° (SSE) 1,650 9.8 -12.6°
Sets 02:26:17 0° 170° (S) 2,517 10.6 -12.1°
